Torna al catalogo

COSMOS 1852

AttivoMilitareLEO
NORAD 18113·PAYLOAD·🇷🇺 Russia

Lanciato Jun 16, 1987 da Plesetsk Cosmodrome

Loading…

Prossimi Passaggi (prossime 24 ore)

TLE

AggiornatoSource: Space-Track

Epoca: Sep 14, 2026, 07:38 UTC

1 18113U 87051A   26257.31866954 -.00000009  00000-0  50356-4 0  9992
2 18113  74.0081   6.4274 0016675 175.0205 185.1012 12.44886877783522

Traccia COSMOS 1852 in tempo reale con AllMySat

Download on the App Store